Showing default

FLOCK 4G 36, 62675

Orbit data source: Space-Track

FLOCK 4G 36, 62675 is a payload satellite owned by Planet (US) in SSO that was launched on Tue, 14 Jan 2025 UTC via an FALCON 9 launch vehicle from the Air Force Western Test Range (AFWTR). Payload-class satellites include a variety of spacecraft equipped with specific instruments for various scientific and technological missions. These include communications satellites like Starlink; space stations such as the ISS; scientific satellites like the Hubble; Earth observation satellites from companies like Planet Labs, Umbra, and HawkEye 360; GPS; miniature CubeSats for education and research; and military/defense satellites.

Loading next visibility...
Identifier
62675, 2025-009BU
Orbit
SSO
Country
Flag of USUS
Related business
Manufacturer
Planet
Mission
Operational Commercial Imaging
Bus & Motor
CUBESAT 3U, Unknown motor
Mass
5.7 kg wet, 5.7 kg dry
Launch date (UTC)
2025-01-14 (1 year ago)
Launch vehicle
FALCON 9
Launch site
Air Force Western Test Range (AFWTR)
Object type
Payload
Rocket body
Debris
Shape & HBR
Box + 2 Pan, 1.0 m
Radar Cross Section
0.072 m², Medium (>0.1 m² and < 1m²)

Expand to show TLE details & history
Last TLE update: 3 hours ago

TLE from 3 hours ago
0 FLOCK 4G 36
1 62675U 25009BU  26125.22572750  .00014418  00000-0  52133-3 0  9993
2 62675  97.4013 207.1952 0006226 111.6958 248.4945 15.28528729 72335
Epoch: 2026-05-05T05:25Z
TLE epoch observation values (Epoch: 2026-05-05T05:25:02.855Z)
Latitude
-0.00008°
Longitude
-97.17031°
Altitude
484.88 km
Speed
7.622 km/s
True Right ascension
13h 48m 46s
True Declination
0° 00' 00"
Sunlit
Object was in full shadow at epoch
Visualization orbit readout
Latitude
Unknown
Longitude
Unknown
Altitude
Unknown
Speed
Unknown
Apparent Right ascension
Unknown
Apparent Declination
Unknown
Sunlit
N/A
Visualization observer readout
Local Sidereal Time
16:46:10
Azimuth
Unknown
Elevation
Unknown
Doppler factor
Unknown
Orbital elements
Apogee altitude
481.432 km
Perigee altitude
472.896 km
Semi-major axis
6,855.301 km
Eccentricity
0.00062
Inclination
97.4013°
RAAN
207.1952°
Arg. of periapsis
111.6958°
True anomaly
248.42814°
Mean anomaly
248.4945°
Eccentric anomaly
248.46132°
Mean motion
3.82387 °/min
Orbital period
94.15 mins
BSTAR
0.00052133
Loading maneuver chart data...
Computing Atmospheric mass density...
Loading historical data...
Loading historical data...
Loading historical data...
Loading historical data...
Loading historical data...
Loading historical data...
Loading historical data...

Documentation

Showing up to 5 results
|